Overview Statistics Trail Chart Weather Telemetry Raw packets
 

This is the latest recevied weather packets stored in our database for station/object N6GPM. If no packets are shown the sender has not sent any weather packets the latest 10 day(s).

<< 42 43 44 45 46 47 48 >>
Time Temp. Humidity Pressure Rain* Wind** Luminosity Snow
1788390968 28.89° C 33% 1017.9 hPa 0 mm - 536 W/m² -
1788390667 28.89° C 33% 1018 hPa 0 mm - 552 W/m² -
1788390362 28.89° C 32% 1017.9 hPa 0 mm - 581 W/m² -
1788390061 28.89° C 33% 1017.9 hPa 0 mm - 593 W/m² -
1788389756 28.89° C 32% 1018 hPa 0 mm - 609 W/m² -
1788389456 28.89° C 33% 1018.1 hPa 0 mm - 627 W/m² -
1788389154 29.44° C 32% 1017.9 hPa 0 mm - 649 W/m² -
1788388851 28.89° C 32% 1018.3 hPa 0 mm - 664 W/m² -
1788388547 28.89° C 33% 1018.2 hPa 0 mm - 683 W/m² -
1788388246 29.44° C 32% 1018.4 hPa 0 mm - 698 W/m² -
1788387945 29.44° C 31% 1018.5 hPa 0 mm - 715 W/m² -
1788387644 29.44° C 32% 1018.2 hPa 0 mm - 730 W/m² -
1788387338 28.89° C 32% 1018.4 hPa 0 mm - 753 W/m² -
1788387033 28.89° C 32% 1018.5 hPa 0 mm - 766 W/m² -
1788386729 29.44° C 32% 1018.3 hPa 0 mm - 781 W/m² -
1788386423 29.44° C 30% 1018.5 hPa 0 mm - 791 W/m² -
1788386119 29.44° C 29% 1018.6 hPa 0 mm - 806 W/m² -
1788385815 29.44° C 30% 1019 hPa 0 mm - 820 W/m² -
1788385514 28.89° C 30% 1018.7 hPa 0 mm - 830 W/m² -
1788385213 30° C 28% 1018.7 hPa 0 mm - 844 W/m² -
1788384909 29.44° C 28% 1019 hPa 0 mm - 856 W/m² -
1788384608 29.44° C 28% 1019 hPa 0 mm - 870 W/m² -
1788384304 28.89° C 29% 1018.8 hPa 0 mm - 880 W/m² -
1788384000 28.89° C 29% 1018.8 hPa 0 mm - 887 W/m² -
1788383696 29.44° C 28% 1018.8 hPa 0 mm - 895 W/m² -

* Rain latest hour (hover to see other rain measurements)
** Current wind speed in m/s (hover to see current wind gust speed)